Defiance, OH

4:30 PM EDT on April 29, 2017 (GMT -0400)
Defiance Memorial

Weather History for KDFI - September, 2012

Change the Weather History Date:

Friday, September 21, 2012

  Actual Average Record
Temperature  
Mean Temperature 59 °F -  
Max Temperature 72 °F 73 °F 92 °F (1941)
Min Temperature 46 °F 51 °F 1 °F (2014)
Degree Days  
Heating Degree Days 6    
Growing Degree Days 9 (Base 50)    
Moisture  
Dew Point 44 °F    
Average Humidity 69    
Maximum Humidity 93    
Minimum Humidity 29    
Precipitation  
Precipitation 0.27 in - - ()
Sea Level Pressure  
Sea Level Pressure 29.91 in    
Wind  
Wind Speed 3 mph (SSW)    
Max Wind Speed 15 mph    
Max Gust Speed 23 mph    
Visibility 10 miles    
Events Rain    
Averages and records for this station are not official NWS values.
T = Trace of Precipitation, MM = Missing Value Source: NWS Daily Summary

Daily Weather History Graph

Daily Weather History Graph

Search for Another Location

Airport or City:

Trip Planner

Search our weather history database for the weather conditions in past years. The results will help you decide how hot, cold, wet, or windy it might be!

Date:

Astronomy

Sep. 21, 2012 Rise Set
Actual Time 7:24 AM EDT 7:35 PM EDT
Civil Twilight 6:57 AM EDT 8:03 PM EDT
Nautical Twilight 6:24 AM EDT 8:35 PM EDT
Astronomical Twilight 5:51 AM EDT 9:08 PM EDT
Moon 1:49 PM EDT (9/21) 11:31 PM EDT (9/21)
Length of Visible Light 13h 06m
Length of Day
12h 11m
Waxing Crescent, 37% of the Moon is Illuminated
Sep 21
Waxing Crescent
Sep 22
First Quarter
Sep 29
Full
Oct 8
Last Quarter
Oct 15
New

Hourly Weather History & Observations

Time (EDT) Temp. Dew Point Humidity Pressure Visibility Wind Dir Wind Speed Gust Speed Precip Events Conditions
12:53 AM 50.0 °F 46.0 °F 86% 29.92 in 10.0 mi Calm Calm - N/A   Clear
1:53 AM 48.9 °F 46.0 °F 90% 29.93 in 10.0 mi Calm Calm - N/A   Clear
2:53 AM 46.0 °F 44.1 °F 93% 29.94 in 10.0 mi Calm Calm - N/A   Clear
3:53 AM 48.0 °F 44.1 °F 86% 29.93 in 10.0 mi Calm Calm - N/A   Clear
4:53 AM 46.9 °F 42.1 °F 83% 29.94 in 10.0 mi Calm Calm - N/A   Clear
5:53 AM 46.9 °F 42.1 °F 83% 29.94 in 10.0 mi Calm Calm - N/A   Clear
6:53 AM 46.0 °F 42.1 °F 86% 29.95 in 10.0 mi Calm Calm - N/A   Clear
7:53 AM 46.9 °F 43.0 °F 86% 29.96 in 10.0 mi Calm Calm - N/A   Clear
8:53 AM 50.0 °F 44.1 °F 80% 29.97 in 10.0 mi SSW 3.5 mph - N/A   Clear
9:53 AM 55.0 °F 45.0 °F 69% 29.97 in 10.0 mi SSW 4.6 mph - N/A   Clear
10:53 AM 60.1 °F 44.1 °F 55% 29.97 in 10.0 mi SSW 5.8 mph - N/A   Clear
11:53 AM 66.0 °F 39.0 °F 37% 29.95 in 10.0 mi SW 10.4 mph - N/A   Clear
12:53 PM 68.0 °F 37.9 °F 33% 29.95 in 10.0 mi SW 10.4 mph - N/A   Clear
1:53 PM 69.1 °F 39.9 °F 35% 29.93 in 10.0 mi South 9.2 mph 17.3 mph N/A   Clear
2:53 PM 69.1 °F 37.9 °F 32% 29.89 in 10.0 mi SW 10.4 mph 20.7 mph N/A   Clear
3:53 PM 72.0 °F 37.9 °F 29% 29.87 in 10.0 mi Variable 5.8 mph 20.7 mph N/A   Clear
4:53 PM 68.0 °F 39.0 °F 35% 29.85 in 10.0 mi South 8.1 mph - 0.00 in Rain Light Rain
5:53 PM 64.9 °F 37.9 °F 37% 29.88 in 10.0 mi SSW 15.0 mph 23.0 mph 0.00 in   Overcast
6:53 PM 57.0 °F 48.0 °F 72% 29.86 in 10.0 mi Calm Calm - 0.01 in Rain Light Rain
7:53 PM 55.0 °F 50.0 °F 83% 29.87 in 6.0 mi Calm Calm - 0.04 in Rain Light Rain
8:53 PM 53.1 °F 50.0 °F 89% 29.87 in 7.0 mi Calm Calm - 0.09 in Rain Rain
9:53 PM 52.0 °F 50.0 °F 93% 29.80 in 10.0 mi NNE 3.5 mph - 0.12 in Rain Light Rain
10:53 PM 52.0 °F 50.0 °F 93% 29.82 in 10.0 mi Calm Calm - 0.00 in   Partly Cloudy
11:53 PM 52.0 °F 50.0 °F 93% 29.79 in 10.0 mi NNE 3.5 mph - 0.01 in Rain Light Rain